Weather History for Mazatlan Airport, Mexico

Change the Weather History Date:

Saturday, January 19, 2013

  Actual Average Record
Temperature  
Mean Temperature 64 °F -  
Max Temperature 80 °F 78 °F 86 °F (2005)
Min Temperature 48 °F 51 °F 42 °F (2001)
Degree Days  
Heating Degree Days 1    
Growing Degree Days 14 (Base 50)    
Moisture  
Dew Point 48 °F    
Average Humidity 64    
Maximum Humidity 88    
Minimum Humidity 28    
Precipitation  
Precipitation 0.00 in - - ()
Sea Level Pressure  
Sea Level Pressure 29.98 in    
Wind  
Wind Speed 6 mph ()    
Max Wind Speed 10 mph    
Max Gust Speed -    
Visibility 12.0 miles    
Events      
Averages and records for this station are not official NWS values.
T = Trace of Precipitation, MM = Missing Value Source: Averaged Metar Reports

Daily Weather History Graph

Daily Weather History Graph

Search for Another Location

Airport:

Trip Planner

Search our weather history database for the weather conditions in past years. The results will help you decide how hot, cold, wet, or windy it might be!

Date:

Astronomy

Jan. 19, 2013 Rise Set
Actual Time 6:48 AM MST 5:43 PM MST
Civil Twilight 6:24 AM MST 6:07 PM MST
Nautical Twilight 5:56 AM MST 6:35 PM MST
Astronomical Twilight 5:29 AM MST 7:02 PM MST
Moon 12:04 PM MST (1/19) 12:34 AM MST (1/19)
Length of Visible Light 11h 43m
Length of Day
10h 55m
First Quarter, 58% of the Moon is Illuminated
Jan 19
First Quarter
Jan 26
Full
Feb 3
Last Quarter
Feb 10
New
Feb 17
First Quarter

Hourly Weather History & Observations

Time (MST) Temp. Dew Point Humidity Pressure Visibility Wind Dir Wind Speed Gust Speed Precip Events Conditions
12:40 AM 51.8 °F 44.6 °F 76% 29.98 in 10.0 mi NW 6.9 mph - N/A   Clear
1:40 AM 51.8 °F 42.8 °F 71% 29.98 in 10.0 mi NNW 8.1 mph - N/A   Clear
2:41 AM 48.2 °F 44.6 °F 87% 29.98 in 10.0 mi ESE 6.9 mph - N/A   Clear
3:40 AM 48.2 °F 42.8 °F 82% 29.98 in 10.0 mi North 8.1 mph - N/A   Clear
4:44 AM 48.2 °F 44.6 °F 87% 30.01 in 10.0 mi Calm Calm - N/A   Clear
5:40 AM 48.2 °F 44.6 °F 87% 29.99 in 10.0 mi NNE 9.2 mph - N/A   Clear
6:41 AM 48.2 °F 42.8 °F 82% 29.99 in 12.0 mi North 9.2 mph - N/A   Partly Cloudy
7:45 AM 53.6 °F 46.4 °F 77% 30.02 in 15.0 mi North 6.9 mph - N/A   Partly Cloudy
8:41 AM 62.6 °F 48.2 °F 59% 30.05 in 15.0 mi North 5.8 mph - N/A   Partly Cloudy
9:40 AM 69.8 °F 44.6 °F 40% 30.04 in 15.0 mi SE 6.9 mph - N/A   Scattered Clouds
10:45 AM 73.4 °F 48.2 °F 41% 30.04 in 15.0 mi South 5.8 mph - N/A   Mostly Cloudy
11:40 AM 80.6 °F 44.6 °F 28% 30.01 in 15.0 mi SE 6.9 mph - N/A   Mostly Cloudy
12:48 PM 78.8 °F 44.6 °F 30% 29.97 in 15.0 mi SSW 8.1 mph - N/A   Mostly Cloudy
1:42 PM 78.8 °F 48.2 °F 34% 29.94 in 15.0 mi WSW 9.2 mph - N/A   Overcast
2:44 PM 80.6 °F 46.4 °F 30% 29.92 in 15.0 mi WSW 10.4 mph - N/A   Overcast
3:42 PM 77.0 °F 53.6 °F 44% 29.93 in 12.0 mi SW 9.2 mph - N/A   Overcast
4:41 PM 75.2 °F 53.6 °F 47% 29.91 in 12.0 mi WSW 10.4 mph - N/A   Overcast
5:43 PM 69.8 °F 53.6 °F 56% 29.94 in 12.0 mi WSW 9.2 mph - N/A   Mostly Cloudy
6:42 PM 64.4 °F 53.6 °F 68% 29.96 in 10.0 mi WSW 9.2 mph - N/A   Mostly Cloudy
7:41 PM 62.6 °F 53.6 °F 72% 29.98 in 10.0 mi West 9.2 mph - N/A   Mostly Cloudy
8:40 PM 59.0 °F 53.6 °F 82% 29.98 in 10.0 mi West 9.2 mph - N/A   Mostly Cloudy
9:40 PM 60.8 °F 53.6 °F 77% 29.98 in 10.0 mi West 6.9 mph - N/A   Scattered Clouds
10:47 PM 57.2 °F 51.8 °F 82% 29.99 in 10.0 mi NE 6.9 mph - N/A   Scattered Clouds
11:41 PM 55.4 °F 51.8 °F 88% 29.97 in 10.0 mi Calm Calm - N/A   Scattered Clouds